Hourly Data Report for December 22, 2020

L'ASSOMPTION
QUEBEC
Current Station Operator: ECCC - MSC

45°48'34.000" N
73°26'05.000" W
21.00 m
7014160
71524
WEW

Download Data

Hourly Data (December 2020)
Hourly Data Report for December 22, 2020
TIME
LST
Temp Definition
°C
Dew Point Definition
°C
Rel Hum Definition
%
Precip. Amount Definition
mm

Wind Dir Definition
10's deg

Wind Spd Definition
km/h
Visibility Definition
km
Stn Press Definition
kPa
Hmdx Definition


Wind Chill Definition


Weather Definition


00:00 -0.2 -0.6 97 0.0 33 3   100.14   -1 LegendNANA
01:00 -0.2 -0.5 98 0.0 34 3   100.12   -1 LegendNANA
02:00 -0.2 -0.5 98 0.0 28 3   100.14   -1 LegendNANA
03:00 -0.1 -0.4 98 0.0 27 1   100.14   0 LegendNANA
04:00 -0.1 -0.3 98 0.0 33 1   100.08   0 LegendNANA
05:00 -0.1 -0.4 98 0.0 23 3   100.08   -1 LegendNANA
06:00 -0.4 -0.6 98 0.0 0 1   100.08   -1 LegendNANA
07:00 -0.7 -0.9 98 0.0   0   100.08     LegendNANA
08:00 -0.7 -0.9 98 0.2 23 3   100.10   -2 LegendNANA
09:00 -0.3 -0.6 98 0.0 21 5   100.14   -2 LegendNANA
10:00 0.3 -0.1 97 0.0 23 9   100.19     LegendNANA
11:00 0.8 -0.3 92 0.0 23 11   100.19     LegendNANA
12:00 1.9 -0.2 86 0.0 24 12   100.19     LegendNANA
13:00 2.0 -0.1 86 0.0 24 12   100.21     LegendNANA
14:00 2.0 -0.1 86 0.0 23 14   100.28     LegendNANA
15:00 1.9 0.0 87 0.0 23 10   100.38     LegendNANA
16:00 1.5 -0.1 89 0.0 24 10   100.48     LegendNANA
17:00 1.5 -0.2 89 0.0 23 11   100.59     LegendNANA
18:00 1.3 -0.1 90 0.0 24 11   100.68     LegendNANA
19:00 0.9 -3.0 75 0.0 28 20   100.88     LegendNANA
20:00 -0.9 -5.8 69 0.0 28 15   101.09   -6 LegendNANA
21:00 -2.6 -7.3 70 0.0 27 16   101.26   -8 LegendNANA
22:00 -3.8 -8.9 67 0.0 26 18   101.49   -10 LegendNANA
23:00 -5.3 -9.8 70 0.0 25 13   101.60   -10 LegendNANA

Notes on Data Quality.

Legend

  • E = Estimated
  • M = Missing
  • NA = Not Available*
  • [empty] = Indicates an unobserved value
Date modified: